EW6362 Weather Reports


time (UTC)temp
F
wind
direction
speed
knots
gust
knots
rain 1hr
in
rain 24hr
in
rain mn
in
humidity
%
barometer
mb
20260510230523 0 115 0.0 0.0 0.00 0.03 0.00 1015.5
20260510230024 0 111 0.0 0.0 0.00 0.03 0.00 1015.5
20260510225753 0 138 0.0 0.0 0.00 0.03 0.00 1015.5
20260510225252 0 106 0.0 0.0 0.00 0.03 0.00 1015.4
20260510224522 84 137 0.0 0.0 0.00 0.04 0.00 1 1015.5
20260510224022 84 149 0.0 0.0 0.00 0.04 0.00 1 1015.3
20260510223754 84 138 0.0 0.0 0.00 0.04 0.00 1 1015.3
20260510223023 83 114 0.0 0.0 0.00 0.04 0.00 1 1015.3
20260510222748 83 143 0.0 0.0 0.00 0.04 0.00 1 1015.3
20260510222018 84 96 0.0 0.0 0.00 0.04 0.00 13 1015.2
20260510221518 84 117 0.0 0.0 0.00 0.04 0.00 24 1015.2
20260510221250 84 104 0.0 0.0 0.00 0.04 0.00 24 1015.2
20260510220519 84 136 0.0 0.0 0.00 0.04 0.00 33 1015.2
20260510220250 84 100 0.0 0.0 0.00 0.04 0.00 28 1015.2
20260510215516 84 121 0.0 0.0 0.00 0.04 0.00 27 1015.3
20260510215016 84 109 0.0 0.0 0.00 0.04 0.00 30 1015.4
20260510214521 84 109 0.0 0.0 0.00 0.04 0.00 27 1015.4
20260510214014 84 154 0.0 0.0 0.00 0.04 0.00 31 1015.3
20260510213515 84 106 0.0 0.0 0.00 0.04 0.00 33 1015.2
20260510213013 84 101 0.0 0.0 0.00 0.04 0.00 32 1015.2
20260510212512 84 131 0.0 0.0 0.00 0.04 0.00 35 1015.2
20260510212012 84 129 0.0 0.0 0.00 0.04 0.00 28 1015.2
20260510211511 84 136 0.0 0.0 0.00 0.04 0.00 23 1015.5
20260510211008 84 95 0.0 0.0 0.00 0.04 0.00 15 1015.5
20260510210509 84 136 0.0 0.0 0.00 0.04 0.00 20 1015.5
20260510210008 84 135 0.0 0.0 0.00 0.04 0.00 17 1015.5
20260510205508 84 59 0.0 0.0 0.00 0.04 0.00 13 1015.5
20260510205239 85 128 0.0 0.0 0.00 0.04 0.00 12 1015.3
20260510204507 84 129 0.0 0.0 0.00 0.04 0.00 11 1015.3
20260510204009 84 142 0.0 0.0 0.00 0.04 0.00 4 1015.5
20260510203505 84 119 0.0 0.0 0.00 0.04 0.00 10 1015.6
20260510203004 84 135 0.0 0.0 0.00 0.04 0.00 10 1015.5
20260510202504 84 111 0.0 0.0 0.00 0.04 0.00 1 1015.3
20260510202236 84 139 0.0 0.0 0.00 0.05 0.00 1 1015.4
20260510202114 84 169 0.0 0.0 0.00 0.05 0.00 1 1015.4
20260510201231 84 144 0.0 0.0 0.00 0.05 0.00 1 1015.3
20260510200455 84 136 0.0 0.0 0.00 0.05 0.00 1 1015.3
20260510195956 83 166 0.0 0.0 0.00 0.06 0.00 1 1015.3
20260510195457 84 134 0.0 0.0 0.00 0.06 0.00 2 1015.4
20260510194956 85 144 0.0 0.0 0.00 0.07 0.00 7 1015.4
20260510194456 85 127 0.0 0.0 0.00 0.07 0.00 9 1015.4
20260510193957 85 167 0.0 0.0 0.00 0.08 0.00 1 1015.4
20260510193452 85 117 0.0 0.0 0.00 0.08 0.00 1 1015.5
20260510192952 86 169 0.0 0.0 0.00 0.09 0.00 2 1015.5
20260510192452 86 134 0.0 0.0 0.00 0.09 0.00 3 1015.5
20260510191951 0 126 0.0 0.0 0.00 0.10 0.00 1015.6
20260510191720 0 119 0.0 0.0 0.00 0.10 0.00 1015.5
20260510190951 0 153 0.0 0.0 0.00 0.11 0.00 1015.6
20260510190448 0 173 0.0 0.0 0.00 0.11 0.00 1015.6
20260510185947 0 136 0.0 0.0 0.00 0.11 0.00 1015.6
20260510185448 0 108 0.0 0.0 0.00 0.11 0.00 1015.5
20260510184945 0 134 0.0 0.0 0.00 0.12 0.00 1015.6
20260510184446 0 138 0.0 0.0 0.00 0.12 0.00 1015.7
20260510183943 0 142 0.0 0.0 0.00 0.12 0.00 1015.6
20260510183442 0 174 0.0 0.0 0.00 0.13 0.00 1015.7
20260510182940 0 101 0.0 0.0 0.00 0.14 0.00 1015.9
20260510182439 0 98 0.0 0.0 0.00 0.14 0.00 1015.8
20260510182211 0 176 0.0 0.0 0.00 0.15 0.00 1016.0
20260510181709 0 108 0.0 0.0 0.00 0.15 0.00 1016.0
20260510180939 0 125 0.0 0.0 0.00 0.16 0.00 1016.1
20260510180431 0 126 0.0 0.0 0.00 0.16 0.00 1016.4
20260510175932 0 101 0.0 0.0 0.00 0.16 0.00 1016.4
20260510175432 0 135 0.0 0.0 0.00 0.16 0.00 1016.5
20260510174932 0 148 0.0 0.0 0.00 0.17 0.00 1016.6
20260510174431 0 123 0.0 0.0 0.00 0.17 0.00 1016.6
20260510173937 0 147 0.0 0.0 0.00 0.18 0.00 1016.6
20260510173930 0 111 0.0 0.0 0.00 0.18 0.00 1016.6
20260510172928 0 119 0.0 0.0 0.00 0.19 0.00 1016.6
20260510172430 82 90 0.0 0.0 0.00 0.20 0.00 1 1016.7
20260510171925 82 128 0.0 0.0 0.00 0.21 0.00 1 1016.8
20260510171425 82 142 0.0 0.0 0.00 0.23 0.00 1 1016.8
20260510170926 81 97 0.0 0.0 0.00 0.25 0.00 1 1016.8
20260510170655 82 51 0.0 0.0 0.00 0.28 0.00 1 1016.9
20260510165924 82 61 0.0 0.0 0.00 0.30 0.00 1 1016.9
20260510165423 81 78 0.0 0.0 0.00 0.32 0.00 1 1017.0
20260510164923 82 54 0.0 0.0 0.00 0.34 0.00 1 1017.0
20260510164652 82 66 0.0 0.0 0.00 0.36 0.00 1 1016.9
20260510164152 83 121 0.0 0.0 0.00 0.36 0.00 1 1016.9
20260510163422 83 120 0.0 0.0 0.00 0.37 0.00 1 1016.8
20260510162922 82 128 0.0 0.0 0.00 0.38 0.00 1 1016.9
20260510162419 82 138 0.0 0.0 0.00 0.39 0.00 1 1016.9
20260510161917 81 109 0.0 0.0 0.00 0.39 0.00 1 1017.1
20260510161650 81 122 0.0 0.0 0.00 0.40 0.00 1 1017.1
20260510160917 80 146 0.0 0.0 0.00 0.41 0.00 1 1017.1
20260510160417 80 145 0.0 0.0 0.00 0.42 0.00 1 1016.9
20260510155918 80 110 0.0 0.0 0.00 0.43 0.00 1 1016.7
20260510155413 80 122 0.0 0.0 0.00 0.46 0.00 1 1016.7
20260510154914 80 115 0.0 0.0 0.00 0.49 0.00 1 1016.6
20260510154413 80 115 0.0 0.0 0.00 0.52 0.00 1 1016.7
20260510153913 80 109 0.0 0.0 0.00 0.52 0.00 1 1016.7
20260510153413 80 158 0.0 0.0 0.00 0.52 0.00 1 1016.7
20260510152913 79 65 0.0 0.0 0.00 0.52 0.00 1 1016.8
20260510152410 79 141 0.0 0.0 0.00 0.52 0.00 1 1016.8
20260510152141 79 66 0.0 0.0 0.00 0.52 0.00 1 1016.8
20260510151410 78 55 0.0 0.0 0.00 0.52 0.00 1 1016.8
20260510150908 78 63 0.0 0.0 0.00 0.52 0.00 1 1016.9
20260510150409 78 74 0.0 0.0 0.00 0.52 0.00 1 1017.0
20260510145909 78 88 0.0 0.0 0.00 0.52 0.00 1 1017.0
20260510145409 78 163 0.0 0.0 0.00 0.52 0.00 1 1017.0
20260510144909 77 151 0.0 0.0 0.00 0.52 0.00 1 1017.1
20260510144410 76 133 0.0 0.0 0.00 0.52 0.00 1 1017.1
20260510143907 76 76 0.0 0.0 0.00 0.52 0.00 1 1016.9
20260510143407 75 107 0.0 0.0 0.00 0.52 0.00 1 1016.9
20260510142905 75 169 0.0 0.0 0.00 0.52 0.00 1 1016.8
20260510142405 74 69 0.0 0.0 0.00 0.53 0.00 1 1016.9
20260510141905 74 57 0.0 0.0 0.00 0.53 0.00 1 1016.9
20260510141405 74 58 0.0 0.0 0.00 0.53 0.00 1 1016.8
20260510140904 73 88 0.0 0.0 0.00 0.54 0.00 1 1016.8
20260510140405 73 105 0.0 0.0 0.00 0.56 0.00 1 1016.7
20260510135906 73 63 0.0 0.0 0.00 0.61 0.00 1 1016.7
20260510135403 72 105 0.0 0.0 0.00 0.63 0.00 1 1016.8
20260510135134 72 63 0.0 0.0 0.00 0.64 0.00 1 1016.8
20260510134403 72 87 0.0 0.0 0.00 0.66 0.00 1 1016.8
20260510133900 71 69 0.0 0.0 0.00 0.69 0.00 1 1016.8
20260510133405 71 91 0.0 0.0 0.00 0.88 0.00 1 1016.7
20260510133401 71 56 0.0 0.0 0.00 0.74 0.00 1 1016.7
20260510132855 71 88 0.0 0.0 0.00 1.05 0.00 1 1016.6
20260510131853 70 100 0.0 0.0 0.00 1.17 0.00 1 1016.5
20260510131352 70 64 0.0 0.0 0.00 1.32 0.00 1 1016.5
20260510131122 70 53 0.0 0.0 0.00 1.32 0.00 1 1016.4
20260510130959 70 60 0.0 0.0 0.00 1.32 0.00 1 1016.3
20260510125851 70 57 0.0 0.0 0.00 1.32 0.00 1 1016.1
20260510125349 70 67 0.0 0.0 0.00 1.32 0.00 1 1016.1
20260510124848 69 55 0.0 0.0 0.00 1.32 0.00 1 1016.0
20260510124349 69 57 0.0 0.0 0.00 1.32 0.00 1 1016.0
20260510123848 69 57 0.0 0.0 0.00 1.32 0.00 1 1015.8
20260510123346 69 61 0.0 0.0 0.00 1.32 0.00 1 1015.7
20260510122845 69 62 0.0 0.0 0.00 1.32 0.00 1 1015.6
20260510122340 69 65 0.0 0.0 0.00 1.32 0.00 1 1015.6
20260510121837 69 74 0.0 0.0 0.00 1.32 0.00 1 1015.6
20260510121610 0 0.0 0.0 0.00 1.32 0.00 1015.5
20260510120833 0 0.0 0.0 0.00 1.32 0.00 1015.4
20260510120329 0 0.0 0.0 0.00 1.32 0.00 1015.5
20260510115734 0 0.0 0.0 0.00 1.32 0.00 1015.4
20260510115228 0 0.0 0.0 0.00 1.32 0.00 1015.3
20260510114634 0 0.0 0.0 0.00 1.32 0.00 1015.2
20260510114406 0 0.0 0.0 0.00 1.32 0.00 1015.1
20260510113631 0 0.0 0.0 0.00 1.32 0.00 1014.9
20260510113129 0 0.0 0.0 0.00 1.32 0.00 1014.7
20260510112629 0 0.0 0.0 0.00 1.32 0.00 1014.7
20260510112037 67 0.0 0.0 0.00 1.32 0.00 1 1014.6
20260510111534 67 144 0.0 0.0 0.00 1.32 0.00 1 1014.6
20260510110939 67 144 0.0 0.0 0.00 1.32 0.00 1 1014.5
20260510110416 67 144 0.0 0.0 0.00 1.32 0.00 1 1014.4
20260510110144 68 130 0.0 0.0 0.00 1.32 0.00 1 1014.3
20260510105411 68 132 0.0 0.0 0.00 1.32 0.00 1 1014.3
20260510104912 68 127 0.0 0.0 0.00 1.32 0.00 1 1014.1
20260510104908 68 120 0.0 0.0 0.00 1.32 0.00 1 1014.2
20260510104136 68 128 0.0 0.0 0.00 1.32 0.00 1 1013.9
20260510103635 68 113 0.0 0.0 0.00 1.32 0.00 1 1013.9
20260510103513 69 78 0.0 0.0 0.00 1.32 0.00 1 1013.8
20260510102403 69 53 0.0 0.0 0.00 1.32 0.00 1 1013.8
20260510101904 69 52 0.0 0.0 0.00 1.32 0.00 1 1013.7
20260510101402 69 52 0.0 0.0 0.00 1.32 0.00 1 1013.5
20260510100857 69 52 0.0 0.0 0.00 1.32 0.00 1 1013.5
20260510100355 69 52 0.0 0.0 0.00 1.32 0.00 1 1013.4
20260510095852 69 52 0.0 0.0 0.00 1.32 0.00 1 1013.4
20260510095352 69 52 0.0 0.0 0.00 1.32 0.00 1 1013.4
20260510094851 69 52 0.0 0.0 0.00 1.32 0.00 1 1013.4
20260510094349 69 52 0.0 0.0 0.00 1.32 0.00 1 1013.4
20260510093847 69 52 0.0 0.0 0.00 1.32 0.00 1 1013.5
20260510093346 69 52 0.0 0.0 0.00 1.32 0.00 1 1013.5
20260510092843 69 52 0.0 0.0 0.00 1.32 0.00 1 1013.5
20260510092343 69 52 0.0 0.0 0.00 1.32 0.00 1 1013.4
20260510091842 69 52 0.0 0.0 0.00 1.32 0.00 1 1013.2
20260510091342 69 52 0.0 0.0 0.00 1.32 0.00 1 1013.2
20260510090845 69 52 0.0 0.0 0.00 1.32 0.00 1 1013.1
20260510090338 69 49 0.0 0.0 0.00 1.32 0.00 1 1013.1
20260510085833 69 47 0.0 0.0 0.00 1.32 0.00 1 1013.2
20260510085328 69 45 0.0 0.0 0.00 1.32 0.00 1 1013.1
20260510085100 69 49 0.0 0.0 0.00 1.32 0.00 1 1013.2
20260510084600 69 49 0.0 0.0 0.00 1.32 0.00 1 1013.1
20260510083829 69 46 0.0 0.0 0.00 1.32 0.00 1 1013.1
20260510083330 69 43 0.0 0.0 0.00 1.32 0.00 1 1013.2
20260510082828 69 30 0.0 0.0 0.00 1.32 0.00 1 1013.3
20260510082324 69 28 0.0 0.0 0.00 1.32 0.00 1 1013.2
20260510081824 69 28 0.0 0.0 0.00 1.32 0.00 1 1013.1
20260510081325 69 28 0.0 0.0 0.00 1.32 0.00 1 1013.1
20260510081055 69 28 0.0 0.0 0.00 1.32 0.00 1 1012.9
20260510080556 69 28 0.0 0.0 0.00 1.32 0.00 1 1012.9
20260510075824 69 28 0.0 0.0 0.00 1.32 0.00 1 1012.9
20260510075324 69 28 0.0 0.0 0.00 1.32 0.00 1 1012.9
20260510074825 69 28 0.0 0.0 0.00 1.32 0.00 1 1012.9
20260510074322 69 28 0.0 0.0 0.00 1.32 0.00 1 1012.9
20260510073826 69 28 0.0 0.0 0.00 1.32 0.00 1 1012.9
20260510073822 69 28 0.0 0.0 0.00 1.32 0.00 1 1012.8
20260510073048 69 28 0.0 0.0 0.00 1.32 0.00 1 1012.5
20260510072319 68 28 0.0 0.0 0.00 1.32 0.00 1 1012.5
20260510071818 68 28 0.0 0.0 0.00 1.32 0.00 1 1012.5
20260510071329 68 28 0.0 0.0 0.00 1.32 0.00 1 1012.5
20260510070816 68 28 0.0 0.0 0.00 1.32 0.00 1 1012.6
20260510070311 68 28 0.0 0.0 0.00 1.32 0.00 1 1012.7
20260510065808 68 28 0.0 0.0 0.00 1.32 0.00 1 1012.7
20260510065306 68 28 0.0 0.0 0.00 1.32 0.00 1 1012.9
20260510064803 68 28 0.0 0.0 0.00 1.32 0.00 1 1012.8
20260510064535 68 28 0.0 0.0 0.00 1.32 0.00 1 1012.8
20260510063801 68 28 0.0 0.0 0.00 1.32 0.00 1 1012.6
20260510063258 68 28 0.0 0.0 0.00 1.32 0.00 1 1012.6
20260510062755 69 28 0.0 0.0 0.00 1.32 0.00 1 1012.6
20260510062256 69 28 0.0 0.0 0.00 1.32 0.00 1 1012.6
20260510062024 69 28 0.0 0.0 0.00 1.32 0.00 1 1012.7
20260510061251 69 28 0.0 0.0 0.00 1.32 0.00 1 1012.8
20260510060749 69 28 0.0 0.0 0.00 1.32 0.00 1 1012.8
20260510060248 69 28 0.0 0.0 0.00 1.32 0.00 1 1012.8
20260510055747 69 28 0.0 0.0 0.00 1.32 0.00 1 1012.9
20260510055245 69 46 0.0 0.0 0.00 1.32 0.00 1 1012.8
20260510054743 69 163 0.0 0.0 0.00 1.32 0.00 1 1012.8
20260510054241 69 163 0.0 0.0 0.00 1.32 0.00 1 1012.6
20260510053742 69 163 0.0 0.0 0.00 1.32 0.00 1 1012.5
20260510053513 69 163 0.0 0.0 0.00 1.32 0.00 1 1012.6
20260510052740 69 163 0.0 0.0 0.00 1.32 0.00 1 1012.7
20260510052239 69 163 0.0 0.0 0.00 1.32 0.00 1 1012.6
20260510051740 69 163 0.0 0.0 0.00 1.32 0.00 1 1012.6
20260510051240 69 163 0.0 0.0 0.00 1.32 0.00 1 1012.6
20260510050740 69 163 0.0 0.0 0.00 1.32 0.00 1 1012.6
20260510050235 69 164 0.0 0.0 0.00 1.32 0.00 1 1012.9
20260510045735 69 164 0.0 0.0 0.00 1.32 1.32 1 1012.8
20260510045236 69 164 0.0 0.0 0.00 1.32 1.32 1 1012.8
20260510044736 69 164 0.0 0.0 0.00 1.32 1.32 1 1012.7
20260510044507 69 166 0.0 0.0 0.00 1.32 1.32 1 1012.8
20260510043736 69 175 0.0 0.0 0.00 1.32 1.32 1 1012.9
20260510043231 69 176 0.0 0.0 0.00 1.32 1.32 1 1013.0
20260510042732 69 177 0.0 0.0 0.00 1.32 1.32 1 1013.2
20260510042233 69 177 0.0 0.0 0.00 1.32 1.32 1 1013.1
20260510041731 69 166 0.0 0.0 0.00 1.32 1.32 1 1013.0
20260510041231 69 167 0.0 0.0 0.00 1.32 1.32 1 1012.9
20260510040731 69 173 0.0 0.0 0.00 1.32 1.32 1 1012.9
20260510040232 69 188 0.0 0.0 0.00 1.32 1.32 1 1012.9
20260510035731 69 171 0.0 0.0 0.00 1.32 1.32 1 1013.1
20260510035231 69 187 0.0 0.0 0.00 1.32 1.32 1 1013.2
20260510034729 69 221 0.0 0.0 0.00 1.32 1.32 1 1013.2
20260510034230 69 229 0.0 0.0 0.00 1.32 1.32 1 1013.4
20260510033729 69 200 0.0 0.0 0.00 1.32 1.32 1 1013.7
20260510033229 69 235 0.0 0.0 0.00 1.32 1.32 1 1013.7
20260510032730 69 234 0.0 0.0 0.00 1.32 1.32 1 1013.5
20260510032230 69 232 0.0 0.0 0.00 1.32 1.32 1 1013.5
20260510031726 69 232 0.0 0.0 0.00 1.32 1.32 1 1013.5
20260510031457 69 233 0.0 0.0 0.00 1.32 1.32 1 1013.5
20260510030725 69 222 0.0 0.0 0.00 1.32 1.32 1 1013.6
20260510030224 69 222 0.0 0.0 0.00 1.32 1.32 1 1013.7
20260510025719 69 222 0.0 0.0 0.00 1.32 1.32 1 1013.6
20260510025217 69 222 0.0 0.0 0.00 1.32 1.32 1 1013.8
20260510024714 69 222 0.0 0.0 0.00 1.32 1.32 1 1013.7
20260510024214 69 222 0.0 0.0 0.00 1.32 1.32 1 1013.6
20260510023713 69 224 0.0 0.0 0.00 1.32 1.32 1 1013.6
20260510023211 70 224 0.0 0.0 0.01 1.32 1.32 1 1013.3
20260510022709 70 224 0.0 0.0 0.01 1.32 1.32 1 1013.3
20260510022207 70 193 0.0 0.0 0.01 1.32 1.32 1 1013.1
20260510021707 70 214 0.0 0.0 0.01 1.32 1.32 1 1013.1
20260510021206 70 184 0.0 0.0 0.01 1.32 1.32 1 1012.9
20260510020940 70 198 0.0 0.0 0.01 1.32 1.32 1 1013.0
20260510020437 70 204 0.0 0.0 0.01 1.32 1.32 1 1013.1
20260510015704 70 166 0.0 0.0 0.01 1.32 1.32 1 1012.9
20260510015205 70 173 0.0 0.0 0.01 1.32 1.32 1 1012.9
20260510014941 70 150 0.0 0.0 0.01 1.32 1.32 1 1012.8
20260510014205 70 166 0.0 0.0 0.01 1.32 1.32 1 1012.8
20260510013706 70 206 0.0 0.0 0.01 1.32 1.32 1 1012.8
20260510013204 70 165 0.0 0.0 0.00 1.31 1.31 1 1012.6
20260510012701 70 153 0.0 0.0 0.00 1.31 1.31 1 1012.6
20260510012200 70 142 0.0 0.0 0.00 1.31 1.31 1 1012.8
20260510011659 70 165 0.0 0.0 0.00 1.31 1.31 1 1012.6
20260510011158 70 169 0.0 0.0 0.00 1.31 1.31 1 1012.4
20260510010930 70 141 0.0 0.0 0.00 1.31 1.31 1 1012.5
20260510010201 70 129 0.0 0.0 0.00 1.31 1.31 1 1012.5
20260510005652 70 170 0.0 0.0 0.00 1.31 1.31 1 1012.5
20260510005150 70 175 0.0 0.0 0.00 1.31 1.31 1 1012.6
20260510004649 70 142 0.0 0.0 0.00 1.31 1.31 1 1012.6
20260510004147 70 172 0.0 0.0 0.00 1.31 1.31 1 1012.6
20260510003649 70 174 0.0 0.0 0.00 1.31 1.31 1 1012.6
20260510003150 70 195 0.0 0.0 0.01 1.31 1.31 1 1012.6
20260510002643 70 187 0.0 0.0 0.01 1.31 1.31 1 1012.6
20260510002142 70 194 0.0 0.0 0.02 1.31 1.31 1 1012.6
20260510001643 70 173 0.0 0.0 0.02 1.31 1.31 1 1012.6
20260510001141 70 193 0.0 0.0 0.02 1.31 1.31 1 1012.5
20260510000912 70 163 0.0 0.0 0.02 1.31 1.31 1 1012.5
20260510000136 70 170 0.0 0.0 0.02 1.31 1.31 1 1012.4
20260509235906 70 173 0.0 0.0 0.02 1.31 1.31 1 1012.6
20260509235137 70 167 0.0 0.0 0.02 1.31 1.31 1 1012.6
20260509234634 70 139 0.0 0.0 0.03 1.31 1.31 1 1012.5
20260509234407 70 146 0.0 0.0 0.03 1.31 1.31 1 1012.3
20260509233635 70 151 0.0 0.0 0.03 1.31 1.31 1 1012.4
20260509233130 70 145 0.0 0.0 0.02 1.30 1.30 1 1012.5
20260509232630 71 168 0.0 0.0 0.02 1.30 1.30 1 1012.7
20260509232132 71 173 0.0 0.0 0.01 1.29 1.29 1 1013.0
20260509231901 71 205 0.0 0.0 0.01 1.29 1.29 1 1012.8